This is the latest recevied weather packets stored in our database for station/object FW0690. If no packets are shown the sender has not sent any weather packets the latest 10 day(s).
| Time | Temp. | Humidity | Pressure | Rain* | Wind** | Luminosity | Snow |
|---|---|---|---|---|---|---|---|
| 1778000200 | 23.33° C | 32% | 1011.6 hPa | - | - | 3 W/m² | - |
| 1777999840 | 23.33° C | 32% | 1011.6 hPa | - | - | 3 W/m² | - |
| 1777999480 | 23.33° C | 32% | 1011.6 hPa | - | - | 4 W/m² | - |
| 1777999120 | 23.33° C | 31% | 1011.6 hPa | - | - | 5 W/m² | - |
| 1777998760 | 23.33° C | 31% | 1011.5 hPa | - | - | 5 W/m² | - |
| 1777998400 | 23.89° C | 31% | 1011.5 hPa | - | - | 8 W/m² | - |
| 1777998040 | 23.89° C | 31% | 1011.5 hPa | - | - | 10 W/m² | - |
| 1777997680 | 23.89° C | 30% | 1011.5 hPa | - | - | 11 W/m² | - |
| 1777997320 | 23.89° C | 30% | 1011.5 hPa | - | - | 13 W/m² | - |
| 1777996960 | 23.89° C | 30% | 1011.5 hPa | - | - | 13 W/m² | - |
| 1777996600 | 24.44° C | 29% | 1011.5 hPa | - | - | 11 W/m² | - |
| 1777996240 | 24.44° C | 29% | 1011.5 hPa | - | - | 10 W/m² | - |
| 1777995880 | 24.44° C | 29% | 1011.5 hPa | - | - | 11 W/m² | - |
| 1777995520 | 25° C | 28% | 1011.5 hPa | - | - | 15 W/m² | - |
| 1777995160 | 25° C | 28% | 1011.7 hPa | - | - | 17 W/m² | - |
| 1777994800 | 25° C | 28% | 1011.7 hPa | - | - | 13 W/m² | - |
| 1777994440 | 25.56° C | 27% | 1011.8 hPa | - | - | 15 W/m² | - |
| 1777994080 | 25.56° C | 27% | 1011.8 hPa | - | - | 18 W/m² | - |
| 1777993720 | 25.56° C | 26% | 1011.9 hPa | - | - | 25 W/m² | - |
| 1777993360 | 25.56° C | 25% | 1012 hPa | - | - | 23 W/m² | - |
| 1777993000 | 26.67° C | 24% | 1012 hPa | - | - | 29 W/m² | - |
| 1777992640 | 27.78° C | 23% | 1012 hPa | - | - | 33 W/m² | - |
| 1777992280 | 28.89° C | 23% | 1011.9 hPa | - | - | 43 W/m² | - |
| 1777991920 | 29.44° C | 23% | 1011.9 hPa | - | - | 162 W/m² | - |
| 1777991560 | 28.89° C | 23% | 1011.9 hPa | - | - | 162 W/m² | - |
* Rain since midnight (hover to see other rain measurements)
** Current wind speed in m/s (hover to see current wind gust speed)